| time (UTC) | temp C | wind direction | speed KPH | gust KPH | rain 1hr cm | rain 24hr cm | rain mn cm | humidity % | barometer mb |
| 20260906060913 | 12 | 109 | 8.0 | 14.5 | 0.00 | 0.00 | 0.00 | 70 | |
| 20260906055916 | 12 | 119 | 6.4 | 20.9 | 0.00 | 0.00 | 0.00 | 68 | |
| 20260906054913 | 12 | 122 | 4.8 | 19.3 | 0.00 | 0.00 | 0.00 | 70 | |
| 20260906053915 | 11 | 113 | 1.6 | 16.1 | 0.00 | 0.00 | 0.00 | 72 | |
| 20260906052911 | 11 | 119 | 1.6 | 19.3 | 0.00 | 0.00 | 0.00 | 75 | |
| 20260906051910 | 10 | 102 | 1.6 | 22.5 | 0.00 | 0.00 | 0.00 | 78 | |
| 20260906050910 | 9 | 111 | 6.4 | 20.9 | 0.00 | 0.00 | 0.00 | 85 | |
| 20260906045910 | 8 | 113 | 4.8 | 17.7 | 0.00 | 0.00 | 0.00 | 85 | |
| 20260905155454 | 11 | 358 | 3.2 | 41.8 | 0.00 | 0.00 | 0.00 | 83 | |
| 20260905154453 | 11 | 82 | 24.1 | 32.2 | 0.00 | 0.00 | 0.00 | 79 | |
| 20260905153453 | 10 | 75 | 17.7 | 32.2 | 0.00 | 0.00 | 0.00 | 85 | |
| 20260905152452 | 10 | 74 | 12.9 | 37.0 | 0.00 | 0.00 | 0.00 | 88 | |
| 20260905151451 | 10 | 111 | 8.0 | 35.4 | 0.00 | 0.00 | 0.00 | 92 | |
| 20260905150451 | 10 | 137 | 11.3 | 38.6 | 0.00 | 0.00 | 0.00 | 90 | |
| 20260905145450 | 9 | 120 | 17.7 | 43.5 | 0.00 | 0.00 | 0.00 | 95 | |
| 20260905144450 | 8 | 64 | 14.5 | 32.2 | 0.00 | 0.00 | 0.00 | 99 | |
| 20260905143449 | 8 | 61 | 8.0 | 30.6 | 0.00 | 0.00 | 0.00 | 100 | |
| 20260905142449 | 8 | 68 | 1.6 | 19.3 | 0.00 | 0.00 | 0.00 | 100 | |
| 20260905141448 | 9 | 63 | 0.0 | 14.5 | 0.00 | 0.00 | 0.00 | 100 | |
| 20260905140447 | 9 | 54 | 16.1 | 16.1 | 0.00 | 0.00 | 0.00 | 100 | |
| 20260905135448 | 10 | 64 | 0.0 | 11.3 | 0.00 | 0.00 | 0.00 | 100 | |
| 20260905134447 | 10 | 43 | 0.0 | 0.0 | 0.00 | 0.00 | 0.00 | 100 | |
| 20260905133446 | 10 | 43 | 0.0 | 0.0 | 0.00 | 0.00 | 0.00 | 100 | |
| 20260905132445 | 10 | 52 | 0.0 | 9.7 | 0.00 | 0.00 | 0.00 | 100 | |
| 20260905131444 | 10 | 52 | 0.0 | 8.0 | 0.00 | 0.00 | 0.00 | 100 | |
| 20260905130444 | 10 | 56 | 6.4 | 11.3 | 0.00 | 0.00 | 0.00 | 99 | |
| 20260905125444 | 11 | 85 | 0.0 | 1.6 | 0.00 | 0.00 | 0.00 | 96 | |
| 20260905124443 | 12 | 68 | 0.0 | 11.3 | 0.00 | 0.00 | 0.00 | 92 | |
| 20260905123442 | 13 | 67 | 1.6 | 8.0 | 0.00 | 0.00 | 0.00 | 85 | |
| 20260905122441 | 13 | 59 | 0.0 | 0.0 | 0.00 | 0.00 | 0.00 | 100 | |
| 20260905121441 | 13 | 59 | 0.0 | 0.0 | 0.00 | 0.00 | 0.00 | 81 | |
| 20260905120440 | 13 | 59 | 0.0 | 6.4 | 0.00 | 0.00 | 0.00 | 80 | |
| 20260905115441 | 13 | 59 | 4.8 | 32.2 | 0.00 | 0.00 | 0.00 | 67 | |
| 20260905114439 | 13 | 67 | 8.0 | 32.2 | 0.00 | 0.00 | 0.00 | 69 | |
| 20260905113438 | 13 | 63 | 8.0 | 19.3 | 0.00 | 0.00 | 0.00 | 78 | |
| 20260905112441 | 13 | 53 | 0.0 | 11.3 | 0.00 | 0.00 | 0.00 | 69 | |
| 20260905111437 | 13 | 56 | 3.2 | 12.9 | 0.00 | 0.00 | 0.00 | 78 | |
| 20260905110438 | 13 | 49 | 1.6 | 16.1 | 0.00 | 0.00 | 0.00 | 68 | |
| 20260905105323 | 13 | 50 | 4.8 | 25.7 | 0.00 | 0.00 | 0.00 | 65 | |
| 20260905104322 | 13 | 45 | 3.2 | 33.8 | 0.00 | 0.00 | 0.00 | 66 | |
| 20260905103321 | 13 | 63 | 9.7 | 33.8 | 0.00 | 0.00 | 0.00 | 65 | |
| 20260905102321 | 13 | 52 | 22.5 | 37.0 | 0.00 | 0.00 | 0.00 | 65 | |
| 20260905101320 | 13 | 84 | 14.5 | 38.6 | 0.00 | 0.00 | 0.00 | 65 | |
| 20260905100320 | 13 | 60 | 20.9 | 38.6 | 0.00 | 0.00 | 0.00 | 100 | |
| 20260905095319 | 13 | 99 | 12.9 | 40.2 | 0.00 | 0.00 | 0.00 | 64 | |
| 20260905094319 | 13 | 36 | 17.7 | 32.2 | 0.00 | 0.00 | 0.00 | 64 | |
| 20260905093318 | 13 | 53 | 11.3 | 33.8 | 0.00 | 0.00 | 0.00 | 100 | |
| 20260905092317 | 12 | 56 | 8.0 | 27.4 | 0.00 | 0.00 | 0.00 | 75 | |
| 20260905091317 | 11 | 71 | 9.7 | 51.5 | 0.00 | 0.00 | 0.00 | 76 | |
| 20260905090316 | 11 | 57 | 16.1 | 33.8 | 0.00 | 0.00 | 0.00 | 81 | |
| 20260905085316 | 11 | 46 | 8.0 | 37.0 | 0.00 | 0.00 | 0.00 | 74 | |
| 20260905084315 | 12 | 46 | 8.0 | 45.1 | 0.00 | 0.00 | 0.00 | 73 | |
| 20260905083314 | 12 | 52 | 19.3 | 59.5 | 0.00 | 0.00 | 0.00 | 70 | |
| 20260905082314 | 12 | 49 | 12.9 | 51.5 | 0.00 | 0.00 | 0.00 | 72 | |
| 20260905081313 | 10 | 63 | 11.3 | 45.1 | 0.00 | 0.00 | 0.00 | 82 | |
| 20260905080313 | 9 | 68 | 9.7 | 33.8 | 0.00 | 0.00 | 0.00 | 99 | |
| 20260905075312 | 8 | 68 | 6.4 | 27.4 | 0.00 | 0.00 | 0.00 | 100 | |
| 20260905074311 | 8 | 78 | 8.0 | 20.9 | 0.00 | 0.00 | 0.00 | 100 | |
| 20260905073314 | 8 | 78 | 9.7 | 24.1 | 0.00 | 0.00 | 0.00 | 100 | |
| 20260905073312 | 8 | 78 | 9.7 | 24.1 | 0.00 | 0.00 | 0.00 | 100 | |
| 20260905072312 | 8 | 67 | 6.4 | 14.5 | 0.00 | 0.00 | 0.00 | 100 | |
| 20260905071310 | 8 | 59 | 0.0 | 0.0 | 0.00 | 0.00 | 0.00 | 100 | |
| 20260905070310 | 8 | 59 | 0.0 | 6.4 | 0.00 | 0.00 | 0.00 | 100 | |
| 20260905065308 | 8 | 64 | 0.0 | 0.0 | 0.00 | 0.00 | 0.00 | 100 | |
| 20260905064308 | 8 | 64 | 0.0 | 0.0 | 0.00 | 0.00 | 0.00 | 100 | |
| 20260905063307 | 8 | 64 | 0.0 | 0.0 | 0.00 | 0.00 | 0.00 | 100 | |
| 20260905062307 | 8 | 64 | 0.0 | 0.0 | 0.00 | 0.00 | 0.00 | 100 |